Change the Weather History Date:

Thursday, December 26, 2013

  Actual Average Record
Temperature  
Mean Temperature 22 °F 25 °F  
Max Temperature 35 °F 32 °F 53 °F (2008)
Min Temperature 9 °F 17 °F 5 °F (2001)
Degree Days  
Heating Degree Days 43 40  
Month to date heating degree days 1106 949  
Since 1 July heating degree days 2428 2168  
Cooling Degree Days 0 0  
Month to date cooling degree days 0 0  
Year to date cooling degree days 950 862  
Moisture  
Dew Point 19 °F    
Average Humidity 78    
Maximum Humidity 87    
Minimum Humidity 70    
Precipitation  
Precipitation T in 0.07 in 0.10 in (2009)
Month to date precipitation 1.26 1.88  
Year to date precipitation 40.61 39.70  
Snow  
Snow T in 0.30 in 4.90 in (2009)
Month to date snowfall 10.2 7.6  
Since 1 July snowfall 11.1 8.5  
Snow Depth 1.00 in    
Sea Level Pressure  
Sea Level Pressure 30.21 in    
Wind  
Wind Speed 11 mph (SW)    
Max Wind Speed 18 mph    
Max Gust Speed 22 mph    
Visibility 10 miles    
Events Snow    
T = Trace of Precipitation, MM = Missing Value Source: NWS Daily Summary

Daily Weather History Graph

Daily Weather History Graph

Search for Another Location

Airport or City:

Trip Planner

Search our weather history database for the weather conditions in past years. The results will help you decide how hot, cold, wet, or windy it might be!

Date:

Astronomy

Dec. 26, 2013 Rise Set
Actual Time 7:17 AM CST 4:28 PM CST
Civil Twilight 6:46 AM CST 4:59 PM CST
Nautical Twilight 6:11 AM CST 5:34 PM CST
Astronomical Twilight 5:37 AM CST 6:08 PM CST
Moon 12:42 AM CST (12/26) 12:06 PM CST (12/26)
Length of Visible Light 10h 13m
Length of Day
9h 10m
Last Quarter, 38% of the Moon is Illuminated
Dec 26
Last Quarter
Jan 1
New
Jan 7
First Quarter
Jan 15
Full
Jan 23
Last Quarter

Hourly Weather History & Observations

Time (CST) Temp. Windchill Dew Point Humidity Pressure Visibility Wind Dir Wind Speed Gust Speed Precip Events Conditions
12:15 AM 25.5 °F 14.9 °F 21.2 °F 84% 30.11 in 7.0 mi West 11.5 mph - N/A   Overcast
12:35 AM 25.2 °F 12.4 °F 20.5 °F 82% 30.12 in 10.0 mi WNW 16.1 mph 20.7 mph N/A   Overcast
12:55 AM 23.9 °F 11.2 °F 18.7 °F 80% 30.12 in 10.0 mi WNW 15.0 mph 18.4 mph N/A   Overcast
1:15 AM 21.6 °F 8.2 °F 15.3 °F 77% 30.13 in 10.0 mi West 15.0 mph 21.9 mph N/A   Scattered Clouds
1:35 AM 20.1 °F 6.4 °F 13.6 °F 76% 30.14 in 10.0 mi West 15.0 mph 18.4 mph N/A   Clear
1:55 AM 19.2 °F 4.7 °F 12.9 °F 76% 30.15 in 10.0 mi West 16.1 mph - N/A   Clear
2:15 AM 18.1 °F 2.4 °F 11.7 °F 76% 30.16 in 10.0 mi WNW 18.4 mph - N/A   Clear
2:35 AM 16.9 °F 1.7 °F 10.9 °F 77% 30.17 in 10.0 mi WNW 16.1 mph - N/A   Clear
2:55 AM 16.3 °F 3.4 °F 10.4 °F 77% 30.18 in 10.0 mi WNW 11.5 mph - N/A   Scattered Clouds
3:15 AM 16.7 °F 4.5 °F 10.9 °F 78% 30.19 in 10.0 mi West 10.4 mph - N/A   Mostly Cloudy
3:35 AM 16.7 °F 3.8 °F 10.8 °F 77% 30.19 in 10.0 mi West 11.5 mph - N/A   Overcast
3:55 AM 15.6 °F 2.5 °F 9.9 °F 78% 30.20 in 10.0 mi West 11.5 mph - N/A   Mostly Cloudy
4:15 AM 14.4 °F 1.6 °F 9.0 °F 79% 30.19 in 10.0 mi West 10.4 mph - N/A   Scattered Clouds
4:35 AM 13.3 °F 2.0 °F 8.4 °F 81% 30.20 in 10.0 mi West 8.1 mph - N/A   Clear
4:55 AM 12.9 °F 3.8 °F 7.7 °F 80% 30.20 in 10.0 mi West 5.8 mph - N/A   Scattered Clouds
5:15 AM 13.3 °F 4.2 °F 8.4 °F 81% 30.20 in 10.0 mi WSW 5.8 mph - N/A   Mostly Cloudy
5:35 AM 13.3 °F 4.2 °F 7.9 °F 79% 30.21 in 10.0 mi West 5.8 mph - N/A   Mostly Cloudy
5:55 AM 12.0 °F 4.1 °F 7.3 °F 81% 30.21 in 10.0 mi WSW 4.6 mph - N/A   Clear
6:15 AM 11.8 °F 3.9 °F 7.3 °F 82% 30.22 in 10.0 mi WSW 4.6 mph - N/A   Clear
6:35 AM 10.9 °F 0.2 °F 6.8 °F 83% 30.22 in 10.0 mi WSW 6.9 mph - N/A   Scattered Clouds
6:55 AM 8.6 °F -2.6 °F 5.4 °F 87% 30.23 in 10.0 mi SW 6.9 mph - N/A   Clear
7:15 AM 10.6 °F 1.0 °F 7.5 °F 87% 30.24 in 10.0 mi SW 5.8 mph - N/A   Clear
7:35 AM 11.3 °F 3.3 °F 7.9 °F 86% 30.24 in 10.0 mi SW 4.6 mph - N/A   Mostly Cloudy
7:55 AM 13.6 °F 4.6 °F 10.2 °F 86% 30.25 in 10.0 mi SW 5.8 mph - N/A   Overcast
8:15 AM 15.3 °F 6.6 °F 11.1 °F 84% 30.26 in 10.0 mi WSW 5.8 mph - N/A   Overcast
8:35 AM 16.2 °F 9.0 °F 11.7 °F 82% 30.26 in 10.0 mi WSW 4.6 mph - N/A   Overcast
8:55 AM 17.6 °F 9.3 °F 12.9 °F 82% 30.27 in 10.0 mi WSW 5.8 mph - N/A   Overcast
9:15 AM 18.5 °F 7.5 °F 13.8 °F 82% 30.29 in 10.0 mi WSW 9.2 mph - N/A   Overcast
9:35 AM 19.4 °F 8.6 °F 14.4 °F 81% 30.29 in 10.0 mi WSW 9.2 mph - N/A   Overcast
9:55 AM 20.1 °F 11.3 °F 15.3 °F 81% 30.30 in 7.0 mi WSW 6.9 mph - N/A Snow Light Snow
10:15 AM 21.0 °F 10.6 °F 16.0 °F 81% 30.30 in 10.0 mi WSW 9.2 mph - N/A Snow Light Snow
10:35 AM 21.7 °F 13.2 °F 16.5 °F 80% 30.29 in 7.0 mi WSW 6.9 mph - N/A Snow Light Snow
10:55 AM 23.0 °F 15.8 °F 17.6 °F 80% 30.29 in 10.0 mi WSW 5.8 mph - N/A Snow Light Snow
11:15 AM 23.9 °F 15.8 °F 18.5 °F 80% 30.28 in 10.0 mi SW 6.9 mph - N/A   Overcast
11:35 AM 25.3 °F 16.0 °F 18.9 °F 76% 30.27 in 10.0 mi SW 9.2 mph - N/A   Overcast
11:55 AM 27.0 °F 17.3 °F 20.3 °F 76% 30.26 in 10.0 mi SW 10.4 mph - N/A   Overcast
12:15 PM 27.3 °F 17.1 °F 20.7 °F 76% 30.26 in 10.0 mi SW 11.5 mph - N/A   Overcast
12:35 PM 28.0 °F 18.6 °F 21.0 °F 75% 30.24 in 10.0 mi SSW 10.4 mph - N/A   Overcast
12:55 PM 28.9 °F 19.8 °F 21.6 °F 74% 30.23 in 10.0 mi SSW 10.4 mph - N/A   Overcast
1:15 PM 29.5 °F 20.4 °F 22.1 °F 74% 30.22 in 10.0 mi SSW 10.4 mph - N/A   Overcast
1:35 PM 30.9 °F 21.7 °F 22.1 °F 70% 30.21 in 10.0 mi SSW 11.5 mph - N/A   Overcast
1:55 PM 31.1 °F 21.4 °F 22.6 °F 71% 30.20 in 10.0 mi SSW 12.7 mph 19.6 mph N/A   Overcast
2:15 PM 31.1 °F 20.5 °F 22.8 °F 71% 30.19 in 10.0 mi SSW 15.0 mph - N/A   Overcast
2:35 PM 32.0 °F 23.0 °F 23.9 °F 72% 30.19 in 10.0 mi South 11.5 mph - N/A   Scattered Clouds
2:55 PM 31.6 °F 23.1 °F 23.5 °F 72% 30.19 in 10.0 mi South 10.4 mph - N/A   Clear
3:15 PM 32.2 °F 22.7 °F 23.9 °F 72% 30.19 in 10.0 mi South 12.7 mph - N/A   Scattered Clouds
3:35 PM 32.0 °F 24.2 °F 23.9 °F 72% 30.19 in 10.0 mi South 9.2 mph - N/A   Scattered Clouds
3:55 PM 32.0 °F 23.0 °F 24.6 °F 74% 30.19 in 10.0 mi South 11.5 mph - N/A   Mostly Cloudy
4:15 PM 32.4 °F 22.5 °F 24.8 °F 74% 30.19 in 10.0 mi South 13.8 mph 18.4 mph N/A   Overcast
4:35 PM 32.0 °F 22.5 °F 24.8 °F 75% 30.18 in 10.0 mi South 12.7 mph - N/A   Overcast
4:55 PM 32.2 °F 24.4 °F 25.5 °F 76% 30.19 in 10.0 mi South 9.2 mph - N/A   Overcast
5:15 PM 32.2 °F 23.8 °F 25.7 °F 77% 30.18 in 10.0 mi South 10.4 mph - N/A   Overcast
5:35 PM 32.9 °F 23.7 °F 26.4 °F 77% 30.17 in 10.0 mi South 12.7 mph - N/A   Overcast
5:55 PM 33.1 °F 24.9 °F 26.4 °F 77% 30.18 in 10.0 mi SSW 10.4 mph - N/A   Overcast
6:15 PM 33.8 °F 24.8 °F 26.2 °F 74% 30.18 in 10.0 mi SSW 12.7 mph 16.1 mph N/A   Overcast
6:35 PM 34.2 °F 25.2 °F 26.4 °F 73% 30.18 in 10.0 mi SSW 12.7 mph - N/A   Overcast
6:55 PM 34.2 °F 24.8 °F 26.6 °F 74% 30.18 in 10.0 mi SW 13.8 mph 19.6 mph N/A   Overcast
7:15 PM 34.2 °F 24.8 °F 27.0 °F 75% 30.19 in 10.0 mi SW 13.8 mph - N/A   Overcast
7:35 PM 33.8 °F 25.8 °F 27.3 °F 77% 30.19 in 10.0 mi SSW 10.4 mph - N/A   Overcast
7:55 PM 34.0 °F 25.5 °F 27.5 °F 77% 30.19 in 10.0 mi SW 11.5 mph - N/A   Overcast
8:15 PM 34.2 °F 25.7 °F 27.5 °F 77% 30.19 in 10.0 mi SW 11.5 mph - N/A   Overcast
8:35 PM 34.2 °F 25.2 °F 27.7 °F 77% 30.18 in 10.0 mi SSW 12.7 mph - N/A   Overcast
8:55 PM 34.0 °F 26.6 °F 27.9 °F 78% 30.19 in 10.0 mi SW 9.2 mph - N/A   Overcast
9:15 PM 34.0 °F 26.0 °F 28.0 °F 79% 30.19 in 10.0 mi SW 10.4 mph - N/A   Overcast
9:35 PM 33.8 °F 26.4 °F 28.0 °F 79% 30.19 in 10.0 mi SW 9.2 mph - N/A   Overcast
9:55 PM 32.9 °F 26.7 °F 27.5 °F 81% 30.19 in 10.0 mi SW 6.9 mph - N/A   Mostly Cloudy
10:15 PM 32.9 °F 26.7 °F 27.7 °F 81% 30.19 in 10.0 mi SW 6.9 mph - N/A   Overcast
10:35 PM 32.9 °F 26.7 °F 27.9 °F 82% 30.21 in 10.0 mi SW 6.9 mph - N/A   Overcast
10:55 PM 33.8 °F 27.0 °F 28.4 °F 81% 30.21 in 10.0 mi SW 8.1 mph - N/A   Overcast
11:15 PM 34.3 °F 27.0 °F 28.8 °F 80% 30.21 in 10.0 mi WSW 9.2 mph - N/A   Overcast
11:35 PM 34.7 °F 26.9 °F 28.8 °F 79% 30.21 in 10.0 mi WSW 10.4 mph - N/A   Overcast
11:55 PM 33.8 °F 26.4 °F 28.6 °F 81% 30.21 in 10.0 mi WSW 9.2 mph - N/A   Overcast